Vorticity
10 15 -17 18 20 9 3 -2 -13 -0 19 -4 3 4 15 -13 5 -0 21 -3 -3 -1 -0 0 -1 -0 15 10 13 11 8 3 2 2 2 4 2 7 10 11 10 10 6 6
-0 -5 13 25 15 9 5 11 15 19 -2 2 6 9 7 2 4 0 -2 33 -2 1 -1 6 6 3 17 8 7 7 10 9 8 7 6 4 5 7 7 4 2 0 1 3
10 -43 34 10 26 5 7 7 -3 3 4 6 -3 12 11 19 1 3 5 29 7 9 8 8 11 13 14 8 7 7 2 -0 2 3 2 4 5 7 6 7 7 5 9 9
11 3 8 -4 -10 26 3 5 8 3 -5 4 -6 -1 3 13 9 10 8 4 4 3 4 1 6 20 12 6 3 1 3 3 0 0 2 2 3 4 7 10 10 10 10 7
-9 20 6 0 -0 12 5 3 -2 23 20 29 17 16 25 7 10 40 9 7 10 8 1 3 17 20 8 5 2 2 3 1 4 1 -1 -4 -0 3 5 7 7 7 8 9
-2 -7 1 12 -1 12 2 8 16 0 12 33 12 -26 36 6 5 14 10 7 3 3 6 16 12 8 5 2 2 4 3 2 1 -10 -3 6 9 10 9 10 9 12 12 10
4 2 5 3 5 15 18 4 15 22 19 4 21 34 -22 6 25 30 7 2 7 11 10 13 12 8 4 7 4 -3 -6 1 2 -4 1 3 5 6 8 10 12 12 13 8
1 54 -5 39 -3 8 15 4 -30 9 10 27 52 28 -24 26 15 26 20 17 11 11 2 12 4 1 1 -2 3 5 8 10 -2 -1 6 17 14 13 16 14 17 12 10 7
45 -5 21 7 3 3 26 23 -0 -42 -25 23 4 17 8 30 35 27 15 12 8 1 14 3 -1 -1 0 -1 0 3 -2 -3 2 15 10 14 15 20 14 18 20 18 13 13
-30 16 30 25 8 9 -12 19 14 -2 11 6 37 0 -2 2 4 7 2 3 5 9 6 4 2 2 -1 2 1 -5 -6 4 12 10 15 21 19 15 9 -4 8 18 5 23
22 -41 -2 47 21 -8 25 -14 25 32 -66 1 13 31 16 15 12 6 7 7 14 11 -0 -1 1 3 3 -6 -3 1 12 15 16 20 21 15 12 4 13 9 9 10 7 7
13 19 -0 10 9 29 18 6 -4 -28 51 -4 -31 6 20 36 10 -3 -0 3 4 2 -2 2 4 1 -5 -3 3 11 7 7 15 21 15 9 8 10 8 2 -1 6 5 6
11 36 30 59 35 3 1 14 17 -0 -18 -2 -10 18 15 19 13 10 12 6 -2 3 4 6 2 -0 5 10 11 12 13 18 10 13 7 7 6 5 3 3 6 8 5 9
36 -10 -20 -26 52 8 13 8 2 7 7 -0 -9 11 12 15 -3 15 10 2 15 9 5 4 8 11 13 4 3 11 13 11 7 5 7 7 9 11 11 13 8 6 5 4
18 -32 29 9 -34 41 30 15 -0 5 4 6 9 -5 -1 -4 12 17 -2 13 1 1 4 2 5 1 -1 10 16 9 4 3 7 12 17 14 10 10 10 13 16 20 14 12
21 16 0 20 -20 31 -3 4 3 27 22 -9 7 21 1 6 8 1 -1 -6 -1 4 3 6 -6 8 10 15 3 3 5 7 13 14 9 10 12 13 10 7 10 6 13 12
-11 -0 15 28 -11 4 45 15 -1 -14 3 20 13 -15 21 2 4 5 4 3 10 11 9 -6 4 9 4 6 3 4 8 16 18 8 5 7 9 11 11 9 10 12 4 8
6 -7 -13 14 21 12 14 10 32 52 14 -0 19 11 30 -11 8 7 7 8 6 -0 -9 -1 5 4 11 9 4 7 18 16 10 8 7 14 12 9 10 11 10 16 17 10
15 7 1 -17 20 -26 -3 12 -1 7 7 44 -7 19 21 6 7 3 0 -3 -5 -1 10 15 7 6 12 5 10 16 14 9 14 11 11 9 13 20 26 29 24 25 25 25
2 6 12 21 -0 -7 44 35 11 14 5 20 7 -19 -2 5 6 11 9 8 2 12 9 5 8 16 7 11 12 8 10 12 8 12 10 11 15 20 22 14 15 17 28 22
15 17 -1 6 -6 30 -7 14 19 -1 -6 54 19 20 9 4 11 12 2 1 6 8 9 18 8 10 11 12 12 14 11 12 13 12 12 16 16 21 26 24 23 21 17 12
5 -22 35 3 -4 19 24 17 1 7 8 9 23 15 12 8 7 5 4 6 3 9 8 10 11 9 9 9 14 13 12 17 10 8 14 13 17 17 15 17 19 15 13 9
19 -34 -32 9 32 2 16 32 11 14 8 13 11 12 15 20 11 7 9 11 13 11 14 11 10 13 13 11 16 9 15 9 8 9 14 5 5 6 8 13 10 -1 9 4
15 26 -17 -6 24 -0 23 4 6 9 10 10 8 10 6 7 9 10 13 14 10 13 9 12 10 12 15 13 15 11 15 8 9 13 12 12 10 7 4 5 5 6 8 5
-3 25 16 16 -16 35 22 11 9 10 10 9 7 11 2 7 13 13 13 10 12 9 9 9 10 11 10 10 13 13 10 15 16 9 11 13 8 6 8 9 8 6 6 7
3 2 7 12 13 9 6 6 3 7 8 11 7 9 12 10 14 11 10 9 7 7 9 10 11 9 10 11 10 9 15 11 11 22 13 11 12 11 7 6 7 4 3 5
Height
3112 3115 3114 3114 3116 3120 3123 3123 3124 3125 3125 3127 3126 3128 3129 3132 3133 3134 3133 3129 3128 3129 3129 3131 3133 3134 3133 3134 3136 3136 3136 3136 3136 3136 3136 3136 3135 3135 3135 3135 3134 3132 3131 3130
3108 3105 3107 3110 3113 3116 3118 3119 3118 3120 3122 3124 3125 3125 3126 3127 3129 3129 3128 3125 3123 3122 3124 3126 3126 3131 3129 3130 3131 3131 3131 3132 3132 3132 3132 3132 3131 3131 3130 3130 3129 3127 3125 3124
3095 3097 3104 3105 3107 3110 3112 3115 3116 3119 3117 3117 3119 3118 3118 3120 3123 3123 3123 3120 3118 3117 3118 3118 3122 3124 3124 3125 3127 3128 3128 3128 3128 3128 3128 3127 3127 3125 3124 3122 3122 3121 3119 3116
3089 3096 3099 3100 3101 3105 3106 3110 3113 3114 3114 3111 3114 3110 3110 3113 3114 3115 3115 3114 3113 3112 3110 3111 3117 3118 3120 3121 3122 3122 3123 3124 3124 3123 3123 3122 3120 3119 3117 3115 3113 3111 3111 3108
3079 3086 3093 3093 3095 3099 3102 3106 3109 3109 3108 3108 3109 3107 3099 3106 3107 3106 3106 3107 3107 3105 3105 3107 3111 3115 3115 3116 3116 3116 3117 3118 3119 3118 3116 3114 3112 3110 3108 3106 3102 3099 3096 3093
3076 3081 3085 3088 3092 3095 3100 3102 3102 3103 3103 3101 3100 3102 3094 3096 3099 3100 3099 3099 3100 3100 3101 3104 3105 3105 3109 3111 3111 3111 3113 3114 3113 3111 3108 3104 3100 3098 3095 3093 3090 3088 3085 3081
3068 3068 3076 3082 3085 3088 3092 3095 3097 3100 3099 3092 3094 3094 3084 3086 3089 3089 3090 3093 3095 3096 3098 3100 3098 3099 3099 3099 3105 3107 3106 3103 3101 3098 3097 3095 3093 3088 3083 3080 3078 3076 3073 3071
3057 3059 3065 3069 3072 3078 3081 3086 3086 3094 3093 3087 3086 3081 3078 3077 3080 3082 3084 3088 3090 3093 3095 3094 3094 3095 3094 3093 3094 3096 3097 3098 3097 3095 3093 3089 3085 3081 3075 3070 3067 3063 3060 3058
3049 3049 3055 3060 3066 3072 3075 3075 3082 3083 3081 3083 3079 3075 3075 3073 3073 3075 3079 3082 3085 3087 3087 3088 3088 3089 3089 3090 3091 3089 3089 3088 3085 3082 3079 3074 3069 3065 3061 3059 3056 3052 3049 3047
3043 3046 3046 3051 3059 3062 3065 3074 3077 3080 3081 3079 3070 3071 3068 3070 3070 3073 3075 3077 3079 3080 3079 3081 3082 3084 3086 3087 3084 3083 3083 3081 3077 3071 3065 3061 3057 3054 3051 3048 3045 3041 3041 3038
3037 3043 3044 3046 3044 3049 3057 3060 3065 3070 3069 3068 3067 3063 3063 3062 3063 3067 3071 3073 3073 3072 3074 3077 3079 3080 3082 3080 3077 3077 3075 3070 3065 3059 3054 3051 3049 3047 3044 3041 3037 3034 3031 3028
3025 3037 3037 3038 3041 3046 3049 3053 3057 3056 3060 3061 3061 3060 3059 3061 3063 3066 3068 3070 3070 3072 3073 3073 3074 3076 3074 3073 3071 3066 3062 3059 3055 3052 3048 3045 3043 3040 3036 3032 3030 3026 3021 3018
3021 3024 3030 3034 3039 3040 3040 3045 3049 3052 3056 3055 3061 3059 3057 3059 3062 3065 3066 3064 3065 3065 3067 3068 3069 3068 3067 3064 3060 3057 3053 3049 3046 3044 3041 3037 3033 3031 3027 3024 3021 3017 3012 3009
3013 3013 3016 3020 3020 3027 3033 3037 3041 3046 3045 3049 3050 3054 3055 3056 3058 3060 3059 3059 3060 3061 3061 3060 3060 3060 3058 3056 3051 3048 3044 3041 3038 3035 3031 3027 3024 3021 3017 3013 3011 3007 3004 2999
3005 3007 3012 3018 3020 3023 3027 3030 3033 3034 3037 3038 3043 3048 3050 3052 3056 3053 3054 3054 3054 3053 3052 3052 3053 3052 3050 3046 3043 3039 3036 3033 3030 3026 3022 3018 3013 3009 3006 3002 2999 2997 2993 2989
2997 2999 3005 3009 3013 3018 3017 3019 3022 3025 3029 3032 3037 3038 3038 3044 3046 3048 3048 3047 3047 3046 3044 3044 3043 3042 3040 3038 3035 3032 3029 3025 3020 3015 3012 3008 3004 3000 2996 2990 2986 2983 2982 2978
2993 2994 2997 3002 3008 3009 3012 3003 3012 3017 3021 3025 3026 3031 3032 3027 3033 3037 3037 3037 3037 3036 3036 3036 3035 3034 3033 3030 3027 3024 3020 3015 3010 3005 3003 2999 2994 2990 2986 2982 2977 2974 2970 2968
2986 2991 2995 2998 3004 3005 2996 2997 3000 3008 3013 3019 3021 3022 3025 3023 3022 3024 3027 3028 3028 3028 3029 3030 3029 3028 3026 3022 3017 3013 3009 3005 3001 2996 2992 2988 2984 2979 2973 2969 2963 2959 2956 2953
2983 2987 2991 2994 2997 2993 2989 2989 2995 2996 2998 3008 3015 3014 3013 3016 3019 3020 3018 3019 3021 3022 3024 3022 3020 3019 3017 3013 3008 3004 3000 2995 2992 2988 2982 2978 2972 2965 2959 2954 2950 2946 2942 2939
2978 2983 2988 2989 2990 2988 2981 2986 2990 2994 2989 2997 3002 3004 3002 3003 3008 3007 3006 3009 3012 3014 3013 3012 3012 3011 3008 3004 2999 2995 2991 2986 2982 2978 2973 2967 2961 2954 2948 2944 2940 2936 2932 2930
2971 2976 2977 2978 2980 2976 2977 2980 2983 2989 2986 2987 2991 2994 2994 2996 2998 2999 2999 3002 3006 3006 3007 3005 3003 3002 2999 2995 2990 2987 2984 2979 2975 2970 2966 2960 2954 2947 2941 2936 2934 2929 2926 2924
2959 2967 2969 2975 2978 2976 2973 2976 2979 2978 2980 2982 2984 2986 2987 2989 2990 2993 2995 2998 3000 2999 2999 2998 2997 2994 2990 2987 2983 2979 2976 2972 2969 2964 2959 2954 2949 2943 2937 2933 2930 2926 2923 2920
2952 2954 2957 2964 2963 2965 2967 2972 2971 2975 2979 2980 2980 2982 2984 2985 2986 2988 2990 2991 2991 2993 2993 2992 2990 2986 2983 2979 2976 2972 2969 2965 2961 2958 2954 2949 2945 2939 2935 2931 2927 2924 2920 2915
2942 2944 2947 2954 2955 2960 2964 2966 2967 2970 2975 2977 2977 2978 2979 2979 2981 2982 2983 2983 2985 2986 2985 2984 2982 2979 2977 2973 2970 2965 2962 2960 2957 2953 2949 2945 2939 2935 2931 2927 2923 2919 2915 2910
2931 2935 2939 2943 2947 2953 2956 2959 2961 2962 2966 2969 2972 2974 2976 2975 2974 2975 2976 2977 2979 2978 2978 2977 2975 2973 2970 2967 2963 2960 2957 2953 2952 2947 2942 2938 2934 2930 2926 2922 2918 2915 2911 2904
2920 2926 2931 2933 2941 2943 2946 2952 2954 2956 2957 2961 2966 2968 2970 2970 2970 2970 2971 2972 2973 2972 2971 2970 2968 2967 2965 2962 2958 2955 2952 2948 2945 2941 2938 2933 2928 2924 2920 2915 2913 2910 2904 2899